KF4PPJ Weather Reports


time (UTC)temp
F
wind
direction
speed
knots
gust
knots
rain 1hr
in
rain 24hr
in
rain mn
in
humidity
%
barometer
mb
20260505171522 57 161 0.9 1.7 0.00 0.00 0.00 81 1019.2
20260505171019 57 162 0.0 0.9 0.00 0.00 0.00 82 1019.2
20260505170516 57 170 0.0 0.9 0.00 0.00 0.00 82 1019.0
20260505170012 56 157 0.0 0.9 0.00 0.00 0.00 82 1019.0
20260505165507 56 163 0.0 1.7 0.00 0.00 0.00 82 1019.0
20260505165003 56 196 1.7 1.7 0.00 0.00 0.00 82 1019.1
20260505164500 56 188 2.6 2.6 0.00 0.00 0.00 82 1019.2
20260505163958 56 206 1.7 2.6 0.00 0.00 0.00 82 1018.9
20260505163456 56 198 1.7 2.6 0.00 0.00 0.00 82 1019.1
20260505162956 56 174 0.9 1.7 0.00 0.00 0.00 82 1019.0
20260505162450 56 171 0.9 1.7 0.00 0.00 0.00 82 1019.0
20260505161947 56 173 0.9 0.9 0.00 0.00 0.00 82 1018.9
20260505161444 56 165 1.7 1.7 0.00 0.00 0.00 82 1018.8
20260505160942 56 186 0.9 1.7 0.00 0.00 0.00 82 1018.8
20260505160440 56 185 0.9 0.9 0.00 0.00 0.00 83 1018.5
20260505152916 55 177 0.9 0.9 0.00 0.00 0.00 84 1018.8
20260505152413 55 180 0.9 1.7 0.00 0.00 0.00 84 1018.7
20260505151907 55 161 0.9 2.6 0.00 0.00 0.00 84 1018.8
20260505151404 55 161 0.0 0.9 0.00 0.00 0.00 84 1018.7
20260505150902 55 195 1.7 2.6 0.00 0.00 0.00 84 1018.7
20260505150359 55 196 2.6 5.2 0.00 0.00 0.00 84 1018.7
20260505140323 55 188 1.7 1.7 0.00 0.00 0.00 85 1017.8
20260505130246 55 160 0.9 0.9 0.00 0.00 0.00 85 1017.4
20260505124737 55 191 2.6 2.6 0.00 0.00 0.00 85 1017.3
20260505124233 55 165 1.7 2.6 0.00 0.00 0.00 85 1017.4
20260505123728 55 161 0.9 5.2 0.00 0.00 0.00 85 1017.3
20260505123226 55 166 0.9 2.6 0.00 0.00 0.00 85 1017.3
20260505122722 55 193 1.7 2.6 0.00 0.00 0.00 86 1017.3
20260505122220 55 163 1.7 2.6 0.00 0.00 0.00 86 1017.2
20260505121716 55 203 0.9 4.3 0.00 0.00 0.00 86 1017.2
20260505121213 55 162 2.6 4.3 0.00 0.00 0.00 86 1017.0
20260505120709 55 198 1.7 1.7 0.00 0.00 0.00 86 1017.1
20260505120205 55 170 2.6 4.3 0.00 0.00 0.00 86 1017.2
20260505115658 55 175 0.9 1.7 0.00 0.00 0.00 86 1017.1
20260505115156 55 190 0.9 5.2 0.00 0.00 0.00 86 1017.0
20260505114654 55 203 2.6 2.6 0.00 0.00 0.00 86 1017.2
20260505114149 55 210 3.5 4.3 0.00 0.00 0.00 86 1017.1
20260505113646 55 151 0.9 2.6 0.00 0.00 0.00 86 1017.0
20260505113143 55 184 1.7 2.6 0.00 0.00 0.00 86 1017.0
20260505112639 55 131 2.6 5.2 0.00 0.00 0.00 86 1017.1
20260505112138 55 157 1.7 4.3 0.00 0.00 0.00 86 1016.9
20260505111637 55 175 1.7 1.7 0.00 0.00 0.00 86 1017.2
20260505111133 55 192 0.9 2.6 0.00 0.00 0.00 86 1017.0
20260505110629 55 129 4.3 6.1 0.00 0.00 0.00 86 1016.9
20260505110127 55 203 1.7 4.3 0.00 0.00 0.00 86 1016.8
20260505102102 55 202 4.3 5.2 0.00 0.00 0.00 86 1016.7
20260505101601 55 167 3.5 5.2 0.00 0.00 0.00 86 1016.7
20260505101057 55 149 3.5 7.0 0.00 0.00 0.00 86 1016.4
20260505100553 54 183 1.7 5.2 0.00 0.00 0.00 87 1016.5
20260505100050 54 218 4.3 5.2 0.00 0.00 0.00 87 1016.4
20260505095546 54 206 2.6 5.2 0.00 0.00 0.00 87 1016.4
20260505095043 55 174 2.6 6.1 0.00 0.00 0.00 87 1016.3
20260505094539 55 179 2.6 6.1 0.00 0.00 0.00 87 1016.5
20260505094036 55 181 2.6 7.0 0.00 0.00 0.00 86 1016.5
20260505093532 55 221 4.3 7.0 0.00 0.00 0.00 86 1016.3
20260505093030 55 169 3.5 7.8 0.00 0.00 0.00 86 1016.3
20260505092527 55 238 4.3 6.1 0.00 0.00 0.00 87 1016.3
20260505092025 55 151 2.6 6.1 0.00 0.00 0.00 87 1016.5
20260505091522 55 209 4.3 6.1 0.00 0.00 0.00 87 1016.3
20260505091020 55 185 4.3 7.8 0.00 0.00 0.00 87 1016.2
20260505090518 55 193 2.6 4.3 0.00 0.00 0.00 87 1016.3
20260505090015 55 212 2.6 7.8 0.00 0.00 0.00 87 1016.1
20260505085513 55 220 5.2 7.8 0.00 0.00 0.00 87 1016.0
20260505085011 55 171 2.6 4.3 0.00 0.00 0.00 87 1016.1
20260505084509 55 210 2.6 4.3 0.00 0.00 0.00 87 1015.9
20260505084007 55 197 2.6 5.2 0.00 0.00 0.00 87 1016.2
20260505083504 55 215 2.6 6.1 0.00 0.00 0.00 86 1016.1
20260505083000 55 201 3.5 5.2 0.00 0.00 0.00 86 1016.0
20260505082455 55 182 2.6 7.0 0.00 0.00 0.00 87 1016.0
20260505081953 55 197 2.6 5.2 0.00 0.00 0.00 87 1016.0
20260505081450 55 196 1.7 5.2 0.00 0.00 0.00 87 1016.0
20260505080946 55 168 1.7 4.3 0.00 0.00 0.00 87 1016.0
20260505080442 55 196 4.3 6.1 0.00 0.00 0.00 87 1015.6
20260505075938 55 185 0.9 5.2 0.00 0.00 0.00 87 1015.8
20260505075435 55 172 0.9 2.6 0.00 0.00 0.00 87 1015.8
20260505074933 55 149 0.9 1.7 0.00 0.00 0.00 87 1015.8
20260505074430 55 172 0.9 1.7 0.00 0.00 0.00 87 1015.8
20260505073926 55 184 1.7 2.6 0.00 0.00 0.00 86 1015.6
20260505073424 55 210 1.7 1.7 0.00 0.00 0.00 86 1015.6
20260505072921 55 209 2.6 2.6 0.00 0.00 0.00 86 1015.6
20260505072417 55 144 0.9 1.7 0.00 0.00 0.00 86 1015.7
20260505071914 55 188 2.6 4.3 0.00 0.00 0.00 86 1015.7
20260505071410 55 221 2.6 4.3 0.00 0.00 0.00 86 1015.5
20260505070908 55 191 1.7 4.3 0.00 0.00 0.00 86 1015.5
20260505070404 55 176 0.9 2.6 0.00 0.00 0.00 86 1015.3
20260505065900 55 181 1.7 2.6 0.00 0.00 0.00 86 1015.2
20260505065357 55 228 2.6 2.6 0.00 0.00 0.00 86 1015.1
20260505064854 55 169 2.6 4.3 0.00 0.00 0.00 86 1015.1
20260505064351 55 219 2.6 5.2 0.00 0.00 0.00 86 1015.2
20260505063849 55 154 2.6 4.3 0.00 0.00 0.00 86 1015.3
20260505063344 55 162 1.7 2.6 0.00 0.00 0.00 86 1015.3
20260505062841 55 161 2.6 4.3 0.00 0.00 0.00 86 1015.2
20260505062339 55 199 1.7 1.7 0.00 0.00 0.00 86 1015.0
20260505061835 55 157 2.6 6.1 0.00 0.00 0.00 86 1015.1
20260505061334 55 150 2.6 4.3 0.00 0.00 0.00 86 1015.0
20260505060831 55 202 2.6 4.3 0.00 0.00 0.00 85 1014.7
20260505060327 56 145 1.7 5.2 0.00 0.00 0.00 85 1014.8
20260505055823 56 212 4.3 5.2 0.00 0.00 0.00 85 1014.8
20260505055319 56 177 1.7 7.0 0.00 0.00 0.00 85 1014.8
20260505054817 56 212 3.5 5.2 0.00 0.00 0.00 84 1014.8
20260505054314 56 198 3.5 7.0 0.00 0.00 0.00 84 1014.8
20260505053813 56 148 2.6 2.6 0.00 0.00 0.00 84 1014.6
20260505053309 56 188 2.6 4.3 0.00 0.00 0.00 84 1014.7
20260505052806 57 150 1.7 5.2 0.00 0.00 0.00 84 1014.6
20260505052304 57 161 1.7 4.3 0.00 0.00 0.00 83 1014.7
20260505051800 57 148 1.7 4.3 0.00 0.00 0.00 83 1014.5
20260505051258 57 213 2.6 4.3 0.00 0.00 0.00 83 1014.6
20260505050755 57 189 2.6 4.3 0.00 0.00 0.00 83 1014.3
20260505050254 57 199 2.6 5.2 0.00 0.00 0.00 82 1014.3
20260505041724 59 166 2.6 6.1 0.00 0.00 0.00 77 1013.8
20260505041221 60 182 3.5 5.2 0.00 0.00 0.00 75 1013.7
20260505040718 61 124 2.6 6.1 0.00 0.00 0.00 74 1013.7
20260505040215 61 198 2.6 6.1 0.00 0.00 0.00 74 1013.5
20260505035712 61 204 1.7 4.3 0.00 0.00 0.00 75 1013.4
20260505035208 61 216 1.7 7.0 0.00 0.00 0.00 74 1013.2
20260505034704 61 198 2.6 5.2 0.00 0.00 0.00 74 1013.0
20260505034202 61 147 1.7 6.1 0.00 0.00 0.00 74 1013.2
20260505033658 62 184 5.2 6.1 0.00 0.00 0.00 73 1013.1
20260505033156 62 198 3.5 5.2 0.00 0.00 0.00 72 1013.2
20260505032654 63 161 1.7 2.6 0.00 0.00 0.00 71 1012.8
20260505032155 63 214 3.5 5.2 0.00 0.00 0.00 71 1012.9
20260505031652 63 139 3.5 5.2 0.00 0.00 0.00 70 1012.8
20260505031149 64 201 0.9 4.3 0.00 0.00 0.00 70 1012.8
20260505030646 64 159 2.6 2.6 0.00 0.00 0.00 70 1012.7
20260505030141 64 123 1.7 2.6 0.00 0.00 0.00 70 1012.7
20260505025637 64 162 3.5 4.3 0.00 0.00 0.00 70 1012.7
20260505025136 64 187 2.6 4.3 0.00 0.00 0.00 69 1012.5
20260505024633 65 206 2.6 5.2 0.00 0.00 0.00 68 1012.7
20260505024131 67 189 4.3 6.1 0.00 0.00 0.00 66 1012.5
20260505023628 68 170 2.6 4.3 0.00 0.00 0.00 64 1012.5
20260505023125 68 192 2.6 4.3 0.00 0.00 0.00 62 1012.3
20260505022623 69 187 1.7 4.3 0.00 0.00 0.00 61 1012.5
20260505022119 69 190 2.6 4.3 0.00 0.00 0.00 61 1012.5
20260505021616 69 193 2.6 4.3 0.00 0.00 0.00 60 1012.2
20260505021113 71 157 2.6 6.1 0.00 0.00 0.00 58 1012.3
20260505020608 71 211 2.6 2.6 0.00 0.00 0.00 57 1012.3
20260505020105 72 194 0.9 2.6 0.00 0.00 0.00 56 1012.3
20260505015602 72 182 1.7 4.3 0.00 0.00 0.00 57 1012.2
20260505015059 72 201 5.2 6.1 0.00 0.00 0.00 56 1012.2
20260505014555 73 205 1.7 2.6 0.00 0.00 0.00 57 1012.1
20260505014052 73 248 4.3 5.2 0.00 0.00 0.00 56 1012.2
20260505013549 73 201 1.7 1.7 0.00 0.00 0.00 57 1012.4
20260505013047 73 184 1.7 4.3 0.00 0.00 0.00 56 1012.5
20260505012545 74 207 1.7 1.7 0.00 0.00 0.00 56 1012.1
20260505012042 74 204 3.5 6.1 0.00 0.00 0.00 54 1012.1
20260505011537 75 127 2.6 6.1 0.00 0.00 0.00 53 1012.3
20260505011035 75 180 6.1 7.0 0.00 0.00 0.00 52 1012.3
20260505010530 75 173 4.3 6.1 0.00 0.00 0.00 52 1012.2
20260505010027 76 204 3.5 6.1 0.00 0.00 0.00 51 1012.3
20260505005523 77 220 3.5 4.3 0.00 0.00 0.00 51 1012.4
20260505005021 77 178 1.7 1.7 0.00 0.00 0.00 51 1012.3
20260505004518 77 191 1.7 2.6 0.00 0.00 0.00 50 1012.3
20260505004014 76 180 2.6 5.2 0.00 0.00 0.00 51 1012.2
20260505003512 76 153 3.5 5.2 0.00 0.00 0.00 51 1012.3
20260505003009 77 138 5.2 7.0 0.00 0.00 0.00 50 1012.3
20260505002504 77 184 3.5 5.2 0.00 0.00 0.00 50 1012.3
20260505002003 77 193 2.6 5.2 0.00 0.00 0.00 49 1012.3
20260505001500 77 201 2.6 4.3 0.00 0.00 0.00 50 1012.3
20260505000956 77 214 1.7 4.3 0.00 0.00 0.00 51 1012.4
20260505000455 76 209 2.6 4.3 0.00 0.00 0.00 52 1012.4
20260504235951 76 156 4.3 5.2 0.00 0.00 0.00 51 1012.4
20260504235448 76 191 4.3 6.1 0.00 0.00 0.00 51 1012.5
20260504234945 76 186 3.5 5.2 0.00 0.00 0.00 51 1012.4
20260504234442 76 152 3.5 5.2 0.00 0.00 0.00 51 1012.5
20260504233938 76 137 3.5 6.1 0.00 0.00 0.00 52 1012.3
20260504233434 76 161 1.7 4.3 0.00 0.00 0.00 52 1012.4
20260504232931 75 225 2.6 6.1 0.00 0.00 0.00 51 1012.5
20260504232429 75 179 2.6 6.1 0.00 0.00 0.00 51 1012.5
20260504231926 75 137 3.5 5.2 0.00 0.00 0.00 51 1012.4
20260504231421 76 141 4.3 7.0 0.00 0.00 0.00 51 1012.4
20260504230917 76 186 6.1 9.6 0.00 0.00 0.00 51 1012.7
20260504230415 76 191 3.5 7.8 0.00 0.00 0.00 50 1012.6
20260504225914 75 203 2.6 5.2 0.00 0.00 0.00 51 1012.7
20260504225410 77 239 3.5 7.8 0.00 0.00 0.00 49 1012.8
20260504224908 76 229 2.6 4.3 0.00 0.00 0.00 50 1013.0
20260504224404 76 163 1.7 4.3 0.00 0.00 0.00 51 1012.7
20260504223901 76 183 4.3 6.1 0.00 0.00 0.00 50 1013.0
20260504223357 76 179 3.5 6.1 0.00 0.00 0.00 50 1013.0
20260504222853 77 172 4.3 6.1 0.00 0.00 0.00 47 1013.0
20260504222350 77 195 1.7 2.6 0.00 0.00 0.00 48 1013.0
20260504221849 77 189 2.6 4.3 0.00 0.00 0.00 47 1013.1
20260504221345 77 206 2.6 6.1 0.00 0.00 0.00 47 1013.1
20260504220842 76 179 2.6 2.6 0.00 0.00 0.00 47 1013.3
20260504220339 75 182 3.5 5.2 0.00 0.00 0.00 48 1013.2
20260504215836 76 211 4.3 5.2 0.00 0.00 0.00 46 1013.3
20260504215332 75 250 2.6 4.3 0.00 0.00 0.00 47 1013.3
20260504214828 75 155 1.7 5.2 0.00 0.00 0.00 47 1013.4
20260504214326 75 205 5.2 7.8 0.00 0.00 0.00 47 1013.3
20260504213822 74 226 3.5 4.3 0.00 0.00 0.00 51 1013.4
20260504213318 74 248 3.5 4.3 0.00 0.00 0.00 50 1013.3
20260504212816 75 228 2.6 5.2 0.00 0.00 0.00 50 1013.6
20260504212312 75 187 3.5 7.0 0.00 0.00 0.00 50 1013.3
20260504211810 74 167 3.5 4.3 0.00 0.00 0.00 51 1013.5
20260504211305 74 196 1.7 6.1 0.00 0.00 0.00 52 1013.6
20260504210803 73 170 3.5 4.3 0.00 0.00 0.00 51 1013.8
20260504210300 73 185 4.3 6.1 0.00 0.00 0.00 53 1013.7
20260504205757 72 225 2.6 7.0 0.00 0.00 0.00 55 1013.5
20260504205255 72 220 2.6 5.2 0.00 0.00 0.00 54 1013.6
20260504204753 72 226 4.3 7.0 0.00 0.00 0.00 54 1013.7
20260504204251 72 222 4.3 8.7 0.00 0.00 0.00 53 1013.7
20260504203750 72 227 2.6 2.6 0.00 0.00 0.00 56 1013.8
20260504203247 71 184 3.5 7.0 0.00 0.00 0.00 55 1013.6
20260504202747 71 185 6.1 7.0 0.00 0.00 0.00 55 1013.8
20260504202244 71 186 2.6 6.1 0.00 0.00 0.00 55 1013.7
20260504201741 71 185 4.3 8.7 0.00 0.00 0.00 55 1013.5
20260504201238 71 177 1.7 9.6 0.00 0.00 0.00 55 1013.7
20260504200736 71 215 2.6 5.2 0.00 0.00 0.00 55 1013.7
20260504200231 70 191 2.6 5.2 0.00 0.00 0.00 56 1013.8
20260504195728 70 171 2.6 6.1 0.00 0.00 0.00 56 1013.8
20260504195224 70 174 2.6 7.0 0.00 0.00 0.00 56 1013.9
20260504194722 69 242 2.6 7.8 0.00 0.00 0.00 57 1014.0
20260504194218 69 201 4.3 7.0 0.00 0.00 0.00 57 1013.8
20260504193714 69 202 4.3 7.8 0.00 0.00 0.00 57 1013.9
20260504193212 69 200 6.1 8.7 0.00 0.00 0.00 56 1013.9
20260504192710 69 208 6.1 7.8 0.00 0.00 0.00 56 1014.1
20260504192208 69 176 4.3 7.8 0.00 0.00 0.00 56 1014.0
20260504191706 69 193 5.2 7.8 0.00 0.00 0.00 56 1014.0
20260504191202 68 170 4.3 7.0 0.00 0.00 0.00 58 1014.1
20260504190658 68 162 2.6 8.7 0.00 0.00 0.00 58 1014.2
20260504190154 69 171 7.0 7.8 0.00 0.00 0.00 57 1014.0
20260504185651 68 229 2.6 4.3 0.00 0.00 0.00 58 1014.2
20260504185148 68 202 5.2 6.1 0.00 0.00 0.00 59 1014.1
20260504184644 67 194 4.3 7.8 0.00 0.00 0.00 59 1014.2
20260504184139 66 187 5.2 7.8 0.00 0.00 0.00 61 1014.1
20260504183636 66 191 4.3 7.8 0.00 0.00 0.00 63 1014.2
20260504183133 66 208 3.5 6.1 0.00 0.00 0.00 62 1014.3
20260504182631 66 249 5.2 7.0 0.00 0.00 0.00 62 1014.3
20260504182128 66 228 4.3 6.1 0.00 0.00 0.00 63 1014.0
20260504181626 65 215 2.6 6.1 0.00 0.00 0.00 64 1014.4
20260504181123 66 193 4.3 5.2 0.00 0.00 0.00 63 1014.3
20260504180622 65 188 1.7 4.3 0.00 0.00 0.00 65 1014.5
20260504180121 66 237 4.3 7.0 0.00 0.00 0.00 63 1014.3
20260504175617 66 243 3.5 5.2 0.00 0.00 0.00 64 1014.5
20260504175114 65 174 1.7 6.1 0.00 0.00 0.00 64 1014.4
20260504174612 65 161 1.7 5.2 0.00 0.00 0.00 65 1014.4
20260504174108 64 191 3.5 6.1 0.00 0.00 0.00 67 1014.3
20260504173605 63 168 4.3 5.2 0.00 0.00 0.00 68 1014.2
20260504173103 63 204 4.3 7.0 0.00 0.00 0.00 66 1014.4
20260504172559 63 198 6.1 7.0 0.00 0.00 0.00 67 1014.3
20260504172056 63 211 3.5 7.0 0.00 0.00 0.00 66 1014.3